Time,TemperatureF,DewpointF,PressureIn,WindDirection,WindDirectionDegrees,WindSpeedMPH,WindSpeedGustMPH,Humidity,HourlyPrecipIn,Conditions,Clouds,dailyrainin,SolarRadiationWatts/m^2,SoftwareType,DateUTC
2013-02-28 00:00:00,32.0,32.0,-100.00,South,172,1.0,2.0,103,-99.99,,,0.00,-0.200000,,2013-02-28 08:00:00,
2013-02-28 00:53:00,32.0,32.0,-100.00,South,172,1.0,2.0,103,-99.99,,,0.00,-0.200000,,2013-02-28 08:53:00,
2013-02-28 01:00:00,33.0,33.0,-100.00,SSW,199,1.0,2.0,103,-99.99,,,0.00,-0.200000,,2013-02-28 09:00:00,
2013-02-28 01:52:00,33.0,33.0,-100.00,SSW,199,1.0,2.0,103,-99.99,,,0.00,-0.200000,,2013-02-28 09:52:00,
2013-02-28 02:00:00,33.0,33.0,-100.00,SSE,155,1.0,1.0,103,-99.99,,,-99.99,-0.200000,,2013-02-28 10:00:00,
2013-02-28 02:52:00,33.0,33.0,-100.00,SSE,155,1.0,1.0,103,-99.99,,,-99.99,-0.200000,,2013-02-28 10:52:00,
2013-02-28 03:00:00,33.0,33.0,-100.00,WSW,237,0.0,1.0,103,-99.99,,,0.01,-0.200000,,2013-02-28 11:00:00,
2013-02-28 03:52:00,33.0,33.0,-100.00,WSW,237,0.0,1.0,103,-99.99,,,0.01,-0.200000,,2013-02-28 11:52:00,
2013-02-28 04:00:00,33.0,33.0,-100.00,East,99,0.0,2.0,103,-99.99,,,0.01,-0.200000,,2013-02-28 12:00:00,
2013-02-28 04:52:00,33.0,33.0,-100.00,East,99,0.0,2.0,103,-99.99,,,0.01,-0.200000,,2013-02-28 12:52:00,
2013-02-28 05:00:00,34.0,34.0,-100.00,WNW,286,0.0,1.0,103,-99.99,,,0.01,-0.200000,,2013-02-28 13:00:00,
2013-02-28 05:52:00,34.0,34.0,-100.00,WNW,286,0.0,1.0,103,-99.99,,,0.01,-0.200000,,2013-02-28 13:52:00,
2013-02-28 06:00:00,34.0,34.0,-100.00,West,281,1.0,3.0,103,-99.99,,,0.01,-0.200000,,2013-02-28 14:00:00,
2013-02-28 06:52:00,34.0,34.0,-100.00,West,281,1.0,3.0,103,-99.99,,,0.01,-0.200000,,2013-02-28 14:52:00,
2013-02-28 07:00:00,34.0,34.0,-100.00,West,280,2.0,4.0,103,-99.99,,,0.02,-0.200000,,2013-02-28 15:00:00,
2013-02-28 07:52:00,34.0,34.0,-100.00,West,280,2.0,4.0,103,-99.99,,,0.02,-0.200000,,2013-02-28 15:52:00,
2013-02-28 08:00:00,34.0,34.0,-100.00,SSW,197,3.0,4.0,103,-99.99,,,0.01,1.500000,,2013-02-28 16:00:00,
2013-02-28 08:52:00,34.0,34.0,-100.00,SSW,197,3.0,4.0,103,-99.99,,,0.01,1.500000,,2013-02-28 16:52:00,
2013-02-28 09:00:00,35.0,35.0,-100.00,SW,235,2.0,4.0,103,-99.99,,,-99.99,5.500000,,2013-02-28 17:00:00,
2013-02-28 09:52:00,35.0,35.0,-100.00,SW,235,2.0,4.0,103,-99.99,,,-99.99,5.500000,,2013-02-28 17:52:00,
2013-02-28 11:00:00,36.0,36.0,-100.00,South,188,3.0,5.0,103,-99.99,,,0.02,15.600000,,2013-02-28 19:00:00,
2013-02-28 11:52:00,36.0,36.0,-100.00,South,188,3.0,5.0,103,-99.99,,,0.02,15.600000,,2013-02-28 19:52:00,
2013-02-28 12:00:00,36.0,36.0,-100.00,South,169,3.0,5.0,103,-99.99,,,0.02,14.700000,,2013-02-28 20:00:00,
2013-02-28 12:52:00,36.0,36.0,-100.00,South,169,3.0,5.0,103,-99.99,,,0.02,14.700000,,2013-02-28 20:52:00,
2013-02-28 13:00:00,37.0,37.0,-100.00,West,270,3.0,5.0,103,-99.99,,,0.02,16.000000,,2013-02-28 21:00:00,
2013-02-28 13:52:00,37.0,37.0,-100.00,West,270,3.0,5.0,103,-99.99,,,0.02,16.000000,,2013-02-28 21:52:00,
2013-02-28 14:00:00,38.0,38.0,-100.00,SSE,148,3.0,5.0,103,-99.99,,,0.02,16.000000,,2013-02-28 22:00:00,
2013-02-28 14:52:00,38.0,38.0,-100.00,SSE,148,3.0,5.0,103,-99.99,,,0.02,16.000000,,2013-02-28 22:52:00,
2013-02-28 15:00:00,38.0,38.0,-100.00,South,175,3.0,4.0,103,-99.99,,,0.03,15.600000,,2013-02-28 23:00:00,
2013-02-28 15:53:00,38.0,38.0,-100.00,South,175,3.0,4.0,103,-99.99,,,0.03,15.600000,,2013-02-28 23:53:00,
2013-02-28 16:00:00,38.0,38.0,-100.00,SSE,156,3.0,4.0,103,-99.99,,,0.02,39.299999,,2013-03-01 00:00:00,
2013-02-28 16:52:00,38.0,38.0,-100.00,SSE,156,3.0,4.0,103,-99.99,,,0.02,39.299999,,2013-03-01 00:52:00,
2013-02-28 17:00:00,38.0,38.0,-100.00,North,-999,-999.0,-999.0,103,-99.99,,,0.03,,,2013-03-01 01:00:00,
2013-02-28 17:52:00,38.0,38.0,-100.00,North,-999,-999.0,-999.0,103,-99.99,,,0.03,,,2013-03-01 01:52:00,
2013-02-28 18:00:00,38.0,38.0,-100.00,SSE,155,2.0,3.0,103,-99.99,,,0.03,6.400000,,2013-03-01 02:00:00,
2013-02-28 18:52:00,38.0,38.0,-100.00,SSE,155,2.0,3.0,103,-99.99,,,0.03,6.400000,,2013-03-01 02:52:00,
2013-02-28 19:00:00,38.0,38.0,-100.00,SE,140,2.0,4.0,103,-99.99,,,0.03,-0.200000,,2013-03-01 03:00:00,
2013-02-28 19:52:00,38.0,38.0,-100.00,SE,140,2.0,4.0,103,-99.99,,,0.03,-0.200000,,2013-03-01 03:52:00,
2013-02-28 20:00:00,38.0,38.0,-100.00,SW,216,2.0,4.0,103,-99.99,,,0.03,-0.200000,,2013-03-01 04:00:00,
2013-02-28 20:52:00,38.0,38.0,-100.00,SW,216,2.0,4.0,103,-99.99,,,0.03,-0.200000,,2013-03-01 04:52:00,
2013-02-28 21:00:00,38.0,38.0,-100.00,WSW,247,2.0,3.0,103,-99.99,,,0.03,-0.200000,,2013-03-01 05:00:00,
2013-02-28 21:52:00,38.0,38.0,-100.00,WSW,247,2.0,3.0,103,-99.99,,,0.03,-0.200000,,2013-03-01 05:52:00,
2013-02-28 22:00:00,37.0,37.0,-100.00,South,181,2.0,3.0,103,-99.99,,,0.03,-0.200000,,2013-03-01 06:00:00,
2013-02-28 22:52:00,37.0,37.0,-100.00,South,181,2.0,3.0,103,-99.99,,,0.03,-0.200000,,2013-03-01 06:52:00,
2013-02-28 23:00:00,38.0,38.0,-100.00,South,178,3.0,4.0,103,-99.99,,,0.03,-0.200000,,2013-03-01 07:00:00,
2013-02-28 23:52:00,38.0,38.0,-100.00,South,178,3.0,4.0,103,-99.99,,,0.03,-0.200000,,2013-03-01 07:52:00,